TimeEST,TemperatureF,Dew PointF,Humidity,Sea Level PressureIn,VisibilityMPH,Wind Direction,Wind SpeedMPH,Gust SpeedMPH,PrecipitationIn,Events,Conditions,WindDirDegrees,DateUTC
12:15 AM,12.2,6.8,79,30.23,10.0,Calm,Calm,-,N/A,,Overcast,0,2012-12-13 05:15:00
12:35 AM,14.0,6.8,73,30.22,10.0,Calm,Calm,-,N/A,,Overcast,0,2012-12-13 05:35:00
12:55 AM,14.0,8.6,79,30.23,10.0,Calm,Calm,-,N/A,,Overcast,0,2012-12-13 05:55:00
1:15 AM,14.0,6.8,73,30.23,10.0,Calm,Calm,-,N/A,,Scattered Clouds,0,2012-12-13 06:15:00
1:35 AM,14.0,8.6,79,30.23,10.0,Calm,Calm,-,N/A,,Clear,0,2012-12-13 06:35:00
1:55 AM,12.2,6.8,79,30.24,10.0,SSW,4.6,-,N/A,,Clear,210,2012-12-13 06:55:00
2:15 AM,12.2,6.8,79,30.24,10.0,SW,3.5,-,N/A,,Clear,230,2012-12-13 07:15:00
2:35 AM,8.6,3.2,79,30.24,10.0,Calm,Calm,-,N/A,,Clear,0,2012-12-13 07:35:00
2:55 AM,8.6,1.4,73,30.25,10.0,Calm,Calm,-,N/A,,Clear,0,2012-12-13 07:55:00
3:15 AM,8.6,1.4,73,30.25,10.0,SSE,3.5,-,N/A,,Clear,160,2012-12-13 08:15:00
3:35 AM,6.8,-0.4,72,30.25,10.0,Calm,Calm,-,N/A,,Clear,0,2012-12-13 08:35:00
3:55 AM,8.6,3.2,79,30.25,10.0,Calm,Calm,-,N/A,,Clear,0,2012-12-13 08:55:00
4:15 AM,5.0,-5.8,61,30.26,10.0,Calm,Calm,-,N/A,,Clear,0,2012-12-13 09:15:00
4:35 AM,5.0,1.4,85,30.26,10.0,Calm,Calm,-,N/A,,Clear,0,2012-12-13 09:35:00
4:55 AM,3.2,-4.0,72,30.26,10.0,Calm,Calm,-,N/A,,Clear,0,2012-12-13 09:55:00
5:15 AM,3.2,-2.2,78,30.27,10.0,Calm,Calm,-,N/A,,Clear,0,2012-12-13 10:15:00
5:35 AM,3.2,-2.2,78,-9999,10.0,Calm,Calm,-,N/A,,Clear,0,2012-12-13 10:35:00
5:55 AM,3.2,-0.4,85,30.28,10.0,Calm,Calm,-,N/A,,Clear,0,2012-12-13 10:55:00
6:15 AM,3.2,-5.8,66,30.28,10.0,Calm,Calm,-,N/A,,Mostly Cloudy,0,2012-12-13 11:15:00
6:35 AM,3.2,-2.2,78,30.29,10.0,Calm,Calm,-,N/A,,Overcast,0,2012-12-13 11:35:00
6:55 AM,3.2,-5.8,66,30.29,10.0,Calm,Calm,-,N/A,,Overcast,0,2012-12-13 11:55:00
7:15 AM,3.2,-2.2,78,30.29,10.0,Calm,Calm,-,N/A,,Overcast,0,2012-12-13 12:15:00
7:35 AM,5.0,-0.4,78,30.30,10.0,Calm,Calm,-,N/A,,Mostly Cloudy,0,2012-12-13 12:35:00
7:55 AM,6.8,1.4,79,30.31,10.0,Calm,Calm,-,N/A,,Partly Cloudy,0,2012-12-13 12:55:00
8:15 AM,6.8,1.4,79,30.31,10.0,Calm,Calm,-,N/A,,Clear,0,2012-12-13 13:15:00
8:35 AM,6.8,1.4,79,30.31,10.0,Calm,Calm,-,N/A,,Clear,0,2012-12-13 13:35:00
8:55 AM,8.6,5.0,85,30.32,9.0,Calm,Calm,-,N/A,,Clear,0,2012-12-13 13:55:00
9:15 AM,12.2,6.8,79,30.30,9.0,Calm,Calm,-,N/A,,Clear,0,2012-12-13 14:15:00
9:35 AM,12.2,6.8,79,30.30,10.0,Calm,Calm,-,N/A,,Clear,0,2012-12-13 14:35:00
9:55 AM,15.8,10.4,79,30.30,10.0,Calm,Calm,-,N/A,,Clear,0,2012-12-13 14:55:00
10:15 AM,17.6,12.2,79,30.30,9.0,Calm,Calm,-,N/A,,Clear,0,2012-12-13 15:15:00
10:35 AM,19.4,15.8,86,30.29,10.0,Calm,Calm,-,N/A,,Clear,0,2012-12-13 15:35:00
10:55 AM,21.2,15.8,80,30.29,-9999.0,Calm,Calm,-,N/A,,Clear,0,2012-12-13 15:55:00
11:15 AM,24.8,17.6,74,30.28,-9999.0,Calm,Calm,-,N/A,,Clear,0,2012-12-13 16:15:00
11:35 AM,26.6,14.0,59,30.28,-9999.0,WSW,3.5,-,N/A,,Clear,240,2012-12-13 16:35:00
11:55 AM,26.6,15.8,64,30.27,-9999.0,Calm,Calm,-,N/A,,Partly Cloudy,0,2012-12-13 16:55:00
12:15 PM,26.6,15.8,64,30.28,-9999.0,Calm,Calm,-,N/A,,Partly Cloudy,0,2012-12-13 17:15:00
12:55 PM,26.6,17.6,69,30.27,-9999.0,WSW,3.5,-,N/A,,Mostly Cloudy,240,2012-12-13 17:55:00
1:15 PM,28.4,-9999,N/A,30.26,-9999.0,West,3.5,-,N/A,,Mostly Cloudy,260,2012-12-13 18:15:00
1:35 PM,28.4,14.0,55,30.26,-9999.0,Calm,Calm,-,N/A,,Mostly Cloudy,0,2012-12-13 18:35:00
1:55 PM,28.4,15.8,59,30.25,-9999.0,Calm,Calm,-,N/A,,Mostly Cloudy,0,2012-12-13 18:55:00
2:15 PM,26.6,17.6,69,30.25,-9999.0,SSW,3.5,-,N/A,,Partly Cloudy,210,2012-12-13 19:15:00
2:35 PM,26.6,17.6,69,30.25,10.0,Calm,Calm,-,N/A,,Clear,0,2012-12-13 19:35:00
2:55 PM,26.6,19.4,74,30.25,10.0,South,4.6,-,N/A,,Scattered Clouds,190,2012-12-13 19:55:00
3:15 PM,26.6,19.4,74,30.25,10.0,South,4.6,-,N/A,,Partly Cloudy,190,2012-12-13 20:15:00
3:35 PM,26.6,19.4,74,30.25,10.0,South,4.6,-,N/A,,Partly Cloudy,180,2012-12-13 20:35:00
3:55 PM,24.8,19.4,80,30.24,10.0,South,6.9,-,N/A,,Scattered Clouds,180,2012-12-13 20:55:00
4:15 PM,24.8,21.2,86,30.25,10.0,SSW,4.6,-,N/A,,Mostly Cloudy,200,2012-12-13 21:15:00
4:35 PM,24.8,21.2,86,30.24,10.0,SSW,5.8,-,N/A,,Overcast,210,2012-12-13 21:35:00
4:55 PM,26.6,21.2,80,30.24,10.0,SW,5.8,-,N/A,,Overcast,220,2012-12-13 21:55:00
5:15 PM,26.6,19.4,74,30.24,10.0,SSW,5.8,-,N/A,,Overcast,200,2012-12-13 22:15:00
5:35 PM,26.6,19.4,74,30.23,10.0,SSW,3.5,-,N/A,,Overcast,200,2012-12-13 22:35:00
6:35 PM,24.8,21.2,86,30.21,10.0,Calm,Calm,-,N/A,,Scattered Clouds,0,2012-12-13 23:35:00
7:15 PM,21.2,19.4,93,30.20,10.0,Calm,Calm,-,N/A,,Partly Cloudy,0,2012-12-14 00:15:00
7:35 PM,21.2,19.4,93,30.20,-9999.0,Calm,Calm,-,N/A,,Mostly Cloudy,0,2012-12-14 00:35:00
7:55 PM,21.2,19.4,93,30.19,10.0,Calm,Calm,-,N/A,,Overcast,0,2012-12-14 00:55:00
8:15 PM,21.2,17.6,86,30.18,10.0,South,5.8,-,N/A,,Overcast,180,2012-12-14 01:15:00
8:35 PM,23.0,19.4,86,30.18,10.0,SSW,3.5,-,N/A,,Overcast,200,2012-12-14 01:35:00
8:55 PM,23.0,17.6,80,30.17,10.0,South,4.6,-,N/A,,Overcast,190,2012-12-14 01:55:00
9:15 PM,23.0,17.6,80,30.16,10.0,South,6.9,-,N/A,,Overcast,180,2012-12-14 02:15:00
9:35 PM,21.2,17.6,86,30.15,10.0,South,8.1,-,N/A,,Overcast,180,2012-12-14 02:35:00
9:55 PM,21.2,17.6,86,30.14,10.0,South,8.1,-,N/A,,Overcast,180,2012-12-14 02:55:00
10:35 PM,21.2,17.6,86,30.13,10.0,South,8.1,-,N/A,,Overcast,170,2012-12-14 03:35:00
10:55 PM,21.2,17.6,86,30.12,10.0,South,5.8,-,N/A,,Mostly Cloudy,190,2012-12-14 03:55:00
11:15 PM,21.2,17.6,86,30.12,10.0,Calm,Calm,-,N/A,,Scattered Clouds,0,2012-12-14 04:15:00
11:35 PM,21.2,17.6,86,30.11,10.0,South,4.6,-,N/A,,Mostly Cloudy,170,2012-12-14 04:35:00
11:55 PM,24.8,19.4,80,30.11,10.0,South,4.6,-,N/A,,Overcast,180,2012-12-14 04:55:00